Location: Unspecified
(43.4680°N, 87.1740°E)
Time: 06:16:39
(UTC+00:00)

DELTA 2 R/B (1) - Pass Details

Date: 17 January 2020
Orbit: 791 x 802 km, 39.6° (Epoch: 24 February)

Event Time Altitude Azimuth Distance (km) Brightness Sun altitude
Rises 13:10:54 0° 237° (WSW) 3,288 7.8 -22.9°
Reaches altitude 10° 13:13:29 10° 230° (SW) 2,362 6.8 -23.4°
Maximum altitude 13:18:41 41° 161° (SSE) 1,143 4.2 -24.3°
Enters shadow 13:19:08 40° 149° (SSE) 1,157 4.2 -24.4°
